Find Starlink 32877

NORAD ID: 62960 Int'l Des: 2025-029 Owner: SPXS Country: US Constellation: starlink operational
LEOCIRCULAR

Current View

Loading 3D Globe...

About Starlink 32877

Starlink 32877 (NORAD 62960) is a starlink constellation satellite (v2 mini) launched Feb 11, 2025 by SPXS of US. It operates in LEO, CIRCULAR orbit with a mass of 730.00 kg.

Upcoming Passes

Passes for default location (London). Set your location on the main map for personalized predictions.

Altitude History

Loading altitude history...

Two-Line Element Set

1 62960U 25029N 26253.72818152 .00019794 00000-0 59533-3 0 9991
2 62960 53.1580 91.1395 0001179 82.5815 277.5322 15.34404480 89651
Epoch: Sep 10, 2026 • Age: 17 hours

Current Status

Altitude 467.0 km
Apogee / Perigee N/A
Velocity 7.64 km/s
Sub-Earth Point 47.32°N, 13.23°W
Launch Date Feb 11, 2025
Age 1.5 years
Type internet

Technical Details

Classification Payload
Mass 730.00 kg
Dry Mass 700.00 kg
Total Mass 730.00 kg
Length 0.30 m
Diameter 4.10 m
Span 29.00 m
Shape Box + pan
Manufacturer SPXS
Bus Type Starlink V2M
Phase Status In Orbit
Owner/State SPXS/US

Most Searched